• în Republica Moldova
  • Lista ţărilor
  • Pe 7 zile
  • Temperatura apei
  • Hartă satelitară
  • Meteo pe hartă
  • Widget-uri
  • user-avatar
    Intrare

    Meteo pe oră la Lubango

    Astăzi, 21 Mai, Luni

    Timp Temperatura Precipitaţii Vânt Presiune Umiditate
    00:00 +12°C° 0 mm 1 m/s 608 mmHg 50%
    01:00 +12°C° 0 mm 1 m/s 608 mmHg 50%
    02:00 +12°C° 0 mm 1 m/s 608 mmHg 50%
    03:00 +12°C° 0 mm 1 m/s 608 mmHg 51%
    04:00 +12°C° 0 mm 1 m/s 608 mmHg 51%
    05:00 +12°C° 0 mm 1 m/s 608 mmHg 51%
    06:00 +12°C° 0 mm 1 m/s 608 mmHg 51%
    07:00 +13°C° 0 mm 1 m/s 609 mmHg 50%
    08:00 +16°C° 0 mm 1 m/s 610 mmHg 44%
    09:00 +21°C° 0 mm 1 m/s 612 mmHg 38%
    10:00 +24°C° 0 mm 1 m/s 613 mmHg 32%
    11:00 +25°C° 0 mm 1 m/s 613 mmHg 30%
    12:00 +26°C° 0 mm 2 m/s 613 mmHg 28%
    13:00 +27°C° 0 mm 2 m/s 613 mmHg 27%
    14:00 +26°C° 0 mm 2 m/s 612 mmHg 28%
    15:00 +26°C° 0 mm 2 m/s 611 mmHg 29%
    16:00 +25°C° 0 mm 2 m/s 611 mmHg 30%
    17:00 +21°C° 0 mm 2 m/s 610 mmHg 34%
    18:00 +18°C° 0 mm 2 m/s 609 mmHg 38%
    19:00 +16°C° 0 mm 1 m/s 608 mmHg 42%
    20:00 +15°C° 0 mm 1 m/s 608 mmHg 43%
    21:00 +14°C° 0 mm 1 m/s 609 mmHg 44%
    22:00 +14°C° 0 mm 1 m/s 609 mmHg 44%
    23:00 +14°C° 0 mm 1 m/s 609 mmHg 43%

    Mâine, 22 Mai, Marţi

    Timp Temperatura Precipitaţii Vânt Presiune Umiditate
    00:00 +14°C° 0 mm 1 m/s 609 mmHg 42%
    01:00 +14°C° 0 mm 1 m/s 609 mmHg 41%
    02:00 +14°C° 0 mm 1 m/s 609 mmHg 42%
    03:00 +14°C° 0 mm 1 m/s 609 mmHg 42%
    04:00 +13°C° 0 mm 1 m/s 608 mmHg 42%
    05:00 +14°C° 0 mm 1 m/s 609 mmHg 42%
    06:00 +14°C° 0 mm 1 m/s 609 mmHg 42%
    07:00 +14°C° 0 mm 1 m/s 609 mmHg 41%
    08:00 +18°C° 0 mm 1 m/s 611 mmHg 36%
    09:00 +20°C° 0 mm 2 m/s 612 mmHg 31%
    10:00 +25°C° 0 mm 2 m/s 614 mmHg 26%
    11:00 +26°C° 0 mm 2 m/s 614 mmHg 24%
    12:00 +27°C° 0 mm 2 m/s 613 mmHg 23%
    13:00 +28°C° 0 mm 2 m/s 613 mmHg 22%
    14:00 +27°C° 0 mm 2 m/s 613 mmHg 23%
    15:00 +27°C° 0 mm 1 m/s 612 mmHg 24%
    16:00 +26°C° 0 mm 1 m/s 611 mmHg 26%
    17:00 +24°C° 0 mm 1 m/s 611 mmHg 30%
    18:00 +21°C° 0 mm 1 m/s 610 mmHg 34%
    19:00 +18°C° 0 mm 1 m/s 610 mmHg 38%
    20:00 +18°C° 0 mm 1 m/s 610 mmHg 39%
    21:00 +18°C° 0 mm 1 m/s 610 mmHg 40%
    22:00 +16°C° 0 mm 1 m/s 611 mmHg 41%
    23:00 +16°C° 0 mm 1 m/s 611 mmHg 42%

    Poimâine, 23 Mai, Miercuri

    Timp Temperatura Precipitaţii Vânt Presiune Umiditate
    00:00 +15°C° 0 mm 1 m/s 610 mmHg 42%
    01:00 +15°C° 0 mm 1 m/s 610 mmHg 42%
    02:00 +15°C° 0 mm 1 m/s 610 mmHg 44%
    03:00 +14°C° 0 mm 1 m/s 609 mmHg 45%
    04:00 +14°C° 0 mm 2 m/s 609 mmHg 47%
    05:00 +14°C° 0 mm 2 m/s 609 mmHg 47%
    06:00 +14°C° 0 mm 2 m/s 610 mmHg 48%
    07:00 +14°C° 0 mm 2 m/s 610 mmHg 48%
    08:00 +17°C° 0 mm 3 m/s 612 mmHg 40%
    09:00 +21°C° 0 mm 3 m/s 613 mmHg 32%
    10:00 +25°C° 0 mm 4 m/s 614 mmHg 24%
    11:00 +26°C° 0 mm 4 m/s 614 mmHg 22%
    12:00 +26°C° 0 mm 3 m/s 614 mmHg 20%
    13:00 +27°C° 0 mm 3 m/s 613 mmHg 18%
    14:00 +27°C° 0 mm 3 m/s 613 mmHg 19%
    15:00 +27°C° 0 mm 3 m/s 613 mmHg 20%
    16:00 +26°C° 0 mm 3 m/s 612 mmHg 20%
    17:00 +22°C° 0 mm 3 m/s 611 mmHg 25%
    18:00 +19°C° 0 mm 2 m/s 611 mmHg 30%
    19:00 +16°C° 0 mm 1 m/s 610 mmHg 34%
    20:00 +16°C° 0 mm 2 m/s 610 mmHg 35%
    21:00 +15°C° 0 mm 2 m/s 610 mmHg 36%
    22:00 +14°C° 0 mm 2 m/s 610 mmHg 37%
    23:00 +14°C° 0 mm 2 m/s 610 mmHg 38%

    24 Mai, Joi

    Timp Temperatura Precipitaţii Vânt Presiune Umiditate
    00:00 +14°C° 0 mm 2 m/s 610 mmHg 38%
    01:00 +13°C° 0 mm 2 m/s 609 mmHg 39%
    02:00 +13°C° 0 mm 2 m/s 609 mmHg 39%
    03:00 +13°C° 0 mm 2 m/s 609 mmHg 40%
    04:00 +13°C° 0 mm 2 m/s 609 mmHg 41%
    05:00 +13°C° 0 mm 2 m/s 609 mmHg 41%
    06:00 +13°C° 0 mm 2 m/s 610 mmHg 42%
    07:00 +13°C° 0 mm 2 m/s 610 mmHg 43%
    08:00 +16°C° 0 mm 3 m/s 611 mmHg 36%
    09:00 +20°C° 0 mm 4 m/s 612 mmHg 30%
    10:00 +23°C° 0 mm 4 m/s 614 mmHg 23%
    11:00 +25°C° 0 mm 4 m/s 613 mmHg 21%
    12:00 +26°C° 0 mm 4 m/s 613 mmHg 20%
    13:00 +27°C° 0 mm 3 m/s 613 mmHg 18%
    14:00 +26°C° 0 mm 3 m/s 612 mmHg 19%
    15:00 +26°C° 0 mm 3 m/s 612 mmHg 19%
    16:00 +26°C° 0 mm 2 m/s 611 mmHg 19%
    17:00 +23°C° 0 mm 2 m/s 611 mmHg 25%
    18:00 +19°C° 0 mm 2 m/s 610 mmHg 30%
    19:00 +16°C° 0 mm 1 m/s 609 mmHg 35%
    20:00 +15°C° 0 mm 1 m/s 609 mmHg 36%
    21:00 +14°C° 0 mm 1 m/s 609 mmHg 38%
    22:00 +14°C° 0 mm 1 m/s 609 mmHg 39%
    23:00 +13°C° 0 mm 2 m/s 609 mmHg 40%

    25 Mai, Vineri

    Timp Temperatura Precipitaţii Vânt Presiune Umiditate
    00:00 +13°C° 0 mm 2 m/s 608 mmHg 40%
    01:00 +13°C° 0 mm 2 m/s 608 mmHg 41%
    02:00 +13°C° 0 mm 2 m/s 608 mmHg 41%
    03:00 +12°C° 0 mm 2 m/s 608 mmHg 41%
    04:00 +12°C° 0 mm 2 m/s 608 mmHg 41%
    05:00 +12°C° 0 mm 2 m/s 608 mmHg 43%
    06:00 +12°C° 0 mm 2 m/s 608 mmHg 44%
    07:00 +13°C° 0 mm 2 m/s 609 mmHg 45%
    08:00 +16°C° 0 mm 3 m/s 610 mmHg 39%
    09:00 +19°C° 0 mm 4 m/s 611 mmHg 32%
    10:00 +22°C° 0 mm 5 m/s 613 mmHg 26%
    11:00 +23°C° 0 mm 4 m/s 612 mmHg 24%
    12:00 +25°C° 0 mm 3 m/s 612 mmHg 22%
    13:00 +26°C° 0 mm 3 m/s 612 mmHg 20%
    14:00 +26°C° 0 mm 3 m/s 611 mmHg 20%
    15:00 +26°C° 0 mm 2 m/s 611 mmHg 20%
    16:00 +26°C° 0 mm 2 m/s 610 mmHg 20%
    17:00 +23°C° 0 mm 2 m/s 610 mmHg 25%
    18:00 +20°C° 0 mm 1 m/s 609 mmHg 29%
    19:00 +16°C° 0 mm 1 m/s 608 mmHg 34%
    20:00 +15°C° 0 mm 1 m/s 608 mmHg 35%
    21:00 +14°C° 0 mm 1 m/s 608 mmHg 37%
    22:00 +14°C° 0 mm 1 m/s 608 mmHg 38%
    23:00 +13°C° 0 mm 2 m/s 608 mmHg 39%

    26 Mai, Sâmbătă

    Timp Temperatura Precipitaţii Vânt Presiune Umiditate
    00:00 +13°C° 0 mm 2 m/s 608 mmHg 39%
    01:00 +13°C° 0 mm 2 m/s 608 mmHg 40%
    02:00 +13°C° 0 mm 2 m/s 607 mmHg 42%
    03:00 +12°C° 0 mm 2 m/s 607 mmHg 45%
    04:00 +11°C° 0 mm 3 m/s 607 mmHg 47%
    05:00 +11°C° 0 mm 3 m/s 608 mmHg 49%
    06:00 +11°C° 0 mm 3 m/s 608 mmHg 50%
    07:00 +11°C° 0 mm 3 m/s 608 mmHg 52%
    08:00 +16°C° 0 mm 3 m/s 610 mmHg 44%
    09:00 +19°C° 0 mm 4 m/s 611 mmHg 37%
    10:00 +22°C° 0 mm 4 m/s 612 mmHg 30%
    11:00 +23°C° 0 mm 4 m/s 612 mmHg 27%
    12:00 +25°C° 0 mm 3 m/s 612 mmHg 24%
    13:00 +27°C° 0 mm 3 m/s 611 mmHg 22%
    14:00 +26°C° 0 mm 2 m/s 611 mmHg 22%
    15:00 +26°C° 0 mm 2 m/s 611 mmHg 22%
    16:00 +26°C° 0 mm 2 m/s 611 mmHg 21%
    17:00 +23°C° 0 mm 1 m/s 610 mmHg 27%
    18:00 +20°C° 0 mm 1 m/s 609 mmHg 33%
    19:00 +16°C° 0 mm 1 m/s 608 mmHg 39%
    20:00 +15°C° 0 mm 1 m/s 608 mmHg 40%
    21:00 +14°C° 0 mm 1 m/s 608 mmHg 42%
    22:00 +14°C° 0 mm 1 m/s 608 mmHg 44%
    23:00 +13°C° 0 mm 1 m/s 608 mmHg 44%
    Arată mai mult